Погода в Акташе

Узбекистан     39°55′17″N   65°55′31″E
темп.,
°C
ветер,
м/с
пор.,
м/с
влажн.,
%
обл.,
%
осадки,
мм/ч
давл.,
гПа
погр.,
м
28 сентября, вт
вт2823:00+17св22440 0.0 101513
02:00+16вюв22470 0.0 101412
05:00+15юв22570 0.0 101423
08:00+17вюв34540 0.0 1015183
11:00+23ссз02330 0.0 1014873
14:00+28зсз34205 0.0 10121522
17:00+28зсз44155 0.0 10111265
20:00+21ссз33265 0.0 101230
29 сентября, ср
ср2923:00+19всв22330 0.0 101212
02:00+17вюв11375 0.0 101311
05:00+16вюв113793 0.0 101311
08:00+19в12303 0.0 1015110
11:00+25св12220 0.0 1015791
14:00+28зсз22180 0.0 10131535
17:00+28зсз43150 0.0 10131380
20:00+22св59270 0.0 1015245
30 сентября, чт
чт3023:00+19св23350 0.0 101636
02:00+17всв22380 0.0 101620
05:00+16в23410 0.0 101629
08:00+18в34340 0.0 1017200
11:00+26всв56215 0.0 1016964
14:00+29св23160 0.0 10141562
17:00+29ссв65160 0.0 10131368
20:00+22всв610270 0.0 1015310
1 октября, пт
пт123:00+19в48335 0.0 1016177
02:00+18вюв473894 0.0 1015255
05:00+16в464382 0.0 1016146
08:00+18в6103898 0.0 1017409
11:00+24всв67245 0.0 1016888
14:00+28всв551896 0.0 10141440
17:00+25в882199 0.0 10141011
20:00+20всв69305 0.0 1017345
2 октября, сб
сб223:00+17всв46346 0.0 1017148
02:00+16в35356 0.0 1018143
05:00+14всв233811 0.0 101965
08:00+15всв3434100 0.0 1021271
11:00+20св332716 0.0 1020890
14:00+24ссв432675 0.0 10191555
17:00+21ссв892698 0.0 1019565
20:00+17св610285 0.0 1022349